, NV

(GMT )
Eureka Airport

Weather History for K05U - September, 2013

Change the Weather History Date:

Thursday, September 5, 2013

  Actual Average Record
Temperature  
Mean Temperature 74 °F -  
Max Temperature 86 °F - - ()
Min Temperature 62 °F - - ()
Cooling Degree Days 9    
Growing Degree Days 24 (Base 50)    
Moisture  
Dew Point 47 °F    
Average Humidity 41    
Maximum Humidity 59    
Minimum Humidity 23    
Precipitation  
Precipitation 0.00 in - - ()
Sea Level Pressure  
Sea Level Pressure 30.19 in    
Wind  
Wind Speed 12 mph (South)    
Max Wind Speed 24 mph    
Max Gust Speed 31 mph    
Visibility 10 miles    
Events      
Averages and records for this station are not official NWS values.
T = Trace of Precipitation, MM = Missing Value Source: NWS Daily Summary

Daily Weather History Graph

Daily Weather History Graph

Search for Another Location

Airport or City:

Trip Planner

Search our weather history database for the weather conditions in past years. The results will help you decide how hot, cold, wet, or windy it might be!

Date:

Astronomy

Sep. 05, 2013 Rise Set
Actual Time 6:16 AM PDT 7:08 PM PDT
Civil Twilight 5:48 AM PDT 7:35 PM PDT
Nautical Twilight 5:16 AM PDT 8:07 PM PDT
Astronomical Twilight 4:42 AM PDT 8:41 PM PDT
Moon 6:31 AM PDT (9/5) 7:02 PM PDT (9/5)
Length of Visible Light 13h 46m
Length of Day
12h 52m
New Moon, 0% of the Moon is Illuminated
Sep 5
New Moon
Sep 12
First Quarter
Sep 19
Full
Sep 26
Last Quarter
Oct 4
New

Hourly Weather History & Observations

Time (PDT) Temp. Dew Point Humidity Pressure Visibility Wind Dir Wind Speed Gust Speed Precip Events Conditions
12:00 AM 66.2 °F 48.2 °F 52% 30.25 in 10.0 mi SSE 9.2 mph - N/A   Clear
12:20 AM 66.2 °F 48.2 °F 52% 30.25 in 10.0 mi SE 20.7 mph 26.5 mph N/A   Clear
12:40 AM 66.2 °F 48.2 °F 52% 30.24 in 10.0 mi SSE 15.0 mph 24.2 mph N/A   Clear
1:00 AM 66.2 °F 48.2 °F 52% 30.24 in 10.0 mi SSW 9.2 mph - N/A   Clear
1:20 AM 64.4 °F 48.2 °F 56% 30.23 in 10.0 mi Calm Calm - N/A   Clear
1:40 AM 64.4 °F 48.2 °F 56% 30.22 in 10.0 mi SE 6.9 mph - N/A   Clear
2:00 AM 64.4 °F 48.2 °F 56% 30.22 in 10.0 mi South 11.5 mph - N/A   Clear
2:20 AM 64.4 °F 48.2 °F 56% 30.21 in 10.0 mi SSE 9.2 mph - N/A   Clear
2:40 AM 66.2 °F 48.2 °F 52% 30.21 in 10.0 mi SSW 10.4 mph 18.4 mph N/A   Clear
3:00 AM 64.4 °F 48.2 °F 56% 30.21 in 10.0 mi SSW 6.9 mph - N/A   Clear
3:20 AM 64.4 °F 48.2 °F 56% 30.21 in 10.0 mi SW 5.8 mph - N/A   Clear
3:40 AM 64.4 °F 48.2 °F 56% 30.21 in 10.0 mi SE 5.8 mph - N/A   Clear
4:00 AM 64.4 °F 48.2 °F 56% 30.21 in 10.0 mi Calm Calm - N/A   Clear
4:20 AM 62.6 °F 48.2 °F 59% 30.21 in 10.0 mi SW 3.5 mph - N/A   Clear
4:40 AM 64.4 °F 48.2 °F 56% 30.21 in 10.0 mi South 6.9 mph - N/A   Clear
5:00 AM 64.4 °F 48.2 °F 56% 30.21 in 10.0 mi South 5.8 mph - N/A   Clear
5:20 AM 64.4 °F 48.2 °F 56% 30.21 in 10.0 mi SSW 5.8 mph - N/A   Scattered Clouds
5:40 AM 66.2 °F 48.2 °F 52% 30.21 in 10.0 mi South 12.7 mph 16.1 mph N/A   Scattered Clouds
6:00 AM 66.2 °F 50.0 °F 56% 30.21 in 10.0 mi SSE 9.2 mph - N/A   Scattered Clouds
6:20 AM 64.4 °F 50.0 °F 59% 30.22 in 10.0 mi South 9.2 mph - N/A   Overcast
6:40 AM 66.2 °F 50.0 °F 56% 30.22 in 10.0 mi SSE 10.4 mph 19.6 mph N/A   Overcast
7:00 AM 64.4 °F 50.0 °F 59% 30.22 in 10.0 mi SSE 12.7 mph 19.6 mph N/A   Mostly Cloudy
7:20 AM 66.2 °F 50.0 °F 56% 30.22 in 10.0 mi SSE 10.4 mph - N/A   Overcast
7:40 AM 66.2 °F 50.0 °F 56% 30.22 in 10.0 mi SSE 11.5 mph - N/A   Overcast
8:00 AM 66.2 °F 50.0 °F 56% 30.23 in 10.0 mi South 12.7 mph 21.9 mph N/A   Mostly Cloudy
8:20 AM 68.0 °F 50.0 °F 52% 30.23 in 10.0 mi SSE 13.8 mph 19.6 mph N/A   Overcast
8:40 AM 71.6 °F 50.0 °F 46% 30.22 in 10.0 mi South 16.1 mph 21.9 mph N/A   Mostly Cloudy
9:00 AM 71.6 °F 50.0 °F 46% 30.23 in 10.0 mi South 15.0 mph 19.6 mph N/A   Mostly Cloudy
9:20 AM 71.6 °F 50.0 °F 46% 30.22 in 10.0 mi SSE 18.4 mph 24.2 mph N/A   Partly Cloudy
9:40 AM 75.2 °F 50.0 °F 41% 30.22 in 10.0 mi SSE 18.4 mph 23.0 mph N/A   Partly Cloudy
10:00 AM 75.2 °F 50.0 °F 41% 30.22 in 10.0 mi SSE 21.9 mph - N/A   Clear
10:20 AM 77.0 °F 50.0 °F 39% 30.22 in 10.0 mi SSE 18.4 mph 24.2 mph N/A   Clear
10:40 AM 77.0 °F 50.0 °F 39% 30.22 in 10.0 mi SE 17.3 mph 23.0 mph N/A   Clear
11:00 AM 78.8 °F 50.0 °F 36% 30.21 in 10.0 mi SSE 19.6 mph 24.2 mph N/A   Clear
11:10 AM 78.8 °F 50.0 °F 36% 30.21 in 10.0 mi SSE 16.1 mph 24.2 mph N/A   Clear
11:40 AM 80.6 °F 50.0 °F 34% 30.21 in 10.0 mi SSE 16.1 mph 24.2 mph N/A   Clear
12:00 PM 80.6 °F 50.0 °F 34% 30.21 in 10.0 mi South 16.1 mph - N/A   Clear
12:20 PM 80.6 °F 50.0 °F 34% 30.20 in 10.0 mi South 23.0 mph 28.8 mph N/A   Clear
12:40 PM 82.4 °F 50.0 °F 32% 30.20 in 10.0 mi South 18.4 mph 23.0 mph N/A   Clear
1:00 PM 84.2 °F 48.2 °F 29% 30.19 in 10.0 mi South 18.4 mph 29.9 mph N/A   Clear
1:20 PM 84.2 °F 48.2 °F 29% 30.18 in 10.0 mi South 17.3 mph 25.3 mph N/A   Clear
1:40 PM 84.2 °F 46.4 °F 27% 30.17 in 10.0 mi South 21.9 mph 28.8 mph N/A   Clear
2:00 PM 86.0 °F 48.2 °F 27% 30.17 in 10.0 mi SSW 20.7 mph 27.6 mph N/A   Clear
2:15 PM 86.0 °F 46.4 °F 25% 30.16 in 10.0 mi South 23.0 mph 29.9 mph N/A   Clear
2:40 PM 86.0 °F 46.4 °F 25% 30.16 in 10.0 mi South 23.0 mph 31.1 mph N/A   Clear
3:00 PM 84.2 °F 46.4 °F 27% 30.15 in 10.0 mi South 20.7 mph 28.8 mph N/A   Partly Cloudy
3:20 PM 84.2 °F 46.4 °F 27% 30.14 in 10.0 mi South 19.6 mph 27.6 mph N/A   Scattered Clouds
3:40 PM 84.2 °F 48.2 °F 29% 30.14 in 10.0 mi South 20.7 mph 27.6 mph N/A   Partly Cloudy
4:00 PM 84.2 °F 48.2 °F 29% 30.14 in 10.0 mi South 20.7 mph 28.8 mph N/A   Clear
4:20 PM 86.0 °F 46.4 °F 25% 30.14 in 10.0 mi South 20.7 mph 28.8 mph N/A   Scattered Clouds
4:40 PM 84.2 °F 46.4 °F 27% 30.13 in 10.0 mi South 24.2 mph 31.1 mph N/A   Partly Cloudy
5:00 PM 82.4 °F 46.4 °F 28% 30.13 in 10.0 mi South 20.7 mph 25.3 mph N/A   Partly Cloudy
5:20 PM 82.4 °F 46.4 °F 28% 30.13 in 10.0 mi SSE 19.6 mph 26.5 mph N/A   Clear
5:40 PM 82.4 °F 46.4 °F 28% 30.12 in 10.0 mi SSE 18.4 mph 21.9 mph N/A   Clear
6:00 PM 82.4 °F 44.6 °F 26% 30.12 in 10.0 mi South 19.6 mph 24.2 mph N/A   Clear
6:20 PM 82.4 °F 42.8 °F 25% 30.12 in 10.0 mi South 12.7 mph 24.2 mph N/A   Partly Cloudy
6:40 PM 82.4 °F 41.0 °F 23% 30.12 in 10.0 mi South 13.8 mph 20.7 mph N/A   Scattered Clouds
7:00 PM 78.8 °F 39.2 °F 24% 30.12 in 10.0 mi South 15.0 mph 21.9 mph N/A   Partly Cloudy
7:20 PM 77.0 °F 41.0 °F 28% 30.13 in 10.0 mi South 10.4 mph - N/A   Scattered Clouds
7:40 PM 75.2 °F 41.0 °F 29% 30.13 in 10.0 mi South 10.4 mph - N/A   Partly Cloudy
8:00 PM 73.4 °F 41.0 °F 31% 30.14 in 10.0 mi South 8.1 mph - N/A   Clear
8:20 PM 71.6 °F 41.0 °F 33% 30.15 in 10.0 mi South 6.9 mph - N/A   Clear
8:40 PM 69.8 °F 41.0 °F 35% 30.15 in 10.0 mi SSE 4.6 mph - N/A   Clear
9:00 PM 66.2 °F 41.0 °F 40% 30.16 in 10.0 mi South 8.1 mph - N/A   Clear
9:20 PM 68.0 °F 41.0 °F 37% 30.16 in 10.0 mi South 8.1 mph - N/A   Clear
9:40 PM 68.0 °F 41.0 °F 37% 30.16 in 10.0 mi SSW 5.8 mph - N/A   Clear
10:00 PM 66.2 °F 41.0 °F 40% 30.16 in 10.0 mi SSE 6.9 mph - N/A   Clear
10:20 PM 68.0 °F 41.0 °F 37% 30.17 in 10.0 mi SSE 11.5 mph - N/A   Clear
10:40 PM 66.2 °F 44.6 °F 46% 30.17 in 10.0 mi SSE 8.1 mph - N/A   Clear
11:00 PM 68.0 °F 41.0 °F 37% 30.17 in 10.0 mi South 5.8 mph - N/A   Clear
11:20 PM 66.2 °F 42.8 °F 43% 30.17 in 10.0 mi Calm Calm - N/A   Clear
11:40 PM 66.2 °F 42.8 °F 43% 30.17 in 10.0 mi South 10.4 mph - N/A   Clear